Time,TemperatureF,DewpointF,PressureIn,WindDirection,WindDirectionDegrees,WindSpeedMPH,WindSpeedGustMPH,Humidity,HourlyPrecipIn,Conditions,Clouds,dailyrainin,SoftwareType,DateUTC
2013-05-13 00:02:00,50.0,33.0,29.78,West,269,2.0,3.0,51,-99.99,,,-99.99,,2013-05-13 04:02:00,
2013-05-13 00:12:00,50.0,33.0,29.78,West,269,2.0,3.0,51,-99.99,,,-99.99,,2013-05-13 04:12:00,
2013-05-13 00:23:00,49.0,32.0,29.79,WSW,245,3.0,4.0,51,-99.99,,,-99.99,,2013-05-13 04:23:00,
2013-05-13 00:32:00,49.0,32.0,29.80,WNW,283,2.0,5.0,52,-99.99,,,-99.99,,2013-05-13 04:32:00,
2013-05-13 00:42:00,49.0,32.0,29.80,WNW,283,2.0,5.0,52,-99.99,,,-99.99,,2013-05-13 04:42:00,
2013-05-13 00:53:00,49.0,32.0,29.80,West,281,1.0,4.0,52,-99.99,,,-99.99,,2013-05-13 04:53:00,
2013-05-13 01:02:00,49.0,32.0,29.80,West,278,1.0,4.0,51,-99.99,,,-99.99,,2013-05-13 05:02:00,
2013-05-13 01:12:00,48.0,31.0,29.81,West,277,0.0,3.0,52,-99.99,,,-99.99,,2013-05-13 05:12:00,
2013-05-13 01:22:00,48.0,31.0,29.81,West,277,0.0,3.0,52,-99.99,,,-99.99,,2013-05-13 05:22:00,
2013-05-13 01:32:00,48.0,32.0,29.81,West,278,0.0,2.0,53,-99.99,,,-99.99,,2013-05-13 05:32:00,
2013-05-13 01:42:00,48.0,32.0,29.81,West,278,0.0,2.0,53,-99.99,,,-99.99,,2013-05-13 05:42:00,
2013-05-13 01:52:00,47.0,31.0,29.82,WSW,257,1.0,6.0,53,-99.99,,,-99.99,,2013-05-13 05:52:00,
2013-05-13 02:01:00,47.0,31.0,29.82,WSW,254,0.0,5.0,53,-99.99,,,-99.99,,2013-05-13 06:01:00,
2013-05-13 02:11:00,47.0,30.0,29.83,West,273,2.0,5.0,52,-99.99,,,-99.99,,2013-05-13 06:11:00,
2013-05-13 02:21:00,47.0,30.0,29.83,West,273,2.0,5.0,52,-99.99,,,-99.99,,2013-05-13 06:21:00,
2013-05-13 02:32:00,47.0,31.0,29.83,West,272,0.0,4.0,53,-99.99,,,-99.99,,2013-05-13 06:32:00,
2013-05-13 02:42:00,47.0,31.0,29.83,West,275,4.0,10.0,53,-99.99,,,-99.99,,2013-05-13 06:42:00,
2013-05-13 02:52:00,47.0,31.0,29.83,West,275,4.0,10.0,53,-99.99,,,-99.99,,2013-05-13 06:52:00,
2013-05-13 03:01:00,47.0,30.0,29.83,WNW,287,3.0,9.0,52,-99.99,,,-99.99,,2013-05-13 07:01:00,
2013-05-13 03:11:00,47.0,30.0,29.83,WNW,287,3.0,9.0,52,-99.99,,,-99.99,,2013-05-13 07:11:00,
2013-05-13 03:22:00,47.0,31.0,29.83,SW,229,1.0,5.0,53,-99.99,,,-99.99,,2013-05-13 07:22:00,
2013-05-13 03:32:00,46.0,31.0,29.83,West,268,3.0,9.0,55,-99.99,,,-99.99,,2013-05-13 07:32:00,
2013-05-13 03:42:00,46.0,32.0,29.84,West,261,2.0,6.0,57,-99.99,,,-99.99,,2013-05-13 07:42:00,
2013-05-13 03:52:00,46.0,32.0,29.84,West,261,2.0,6.0,57,-99.99,,,-99.99,,2013-05-13 07:52:00,
2013-05-13 04:02:00,46.0,32.0,29.84,WNW,288,4.0,7.0,57,-99.99,,,-99.99,,2013-05-13 08:02:00,
2013-05-13 04:11:00,46.0,32.0,29.84,West,272,1.0,5.0,58,-99.99,,,-99.99,,2013-05-13 08:11:00,
2013-05-13 04:21:00,46.0,32.0,29.84,West,272,1.0,5.0,58,-99.99,,,-99.99,,2013-05-13 08:21:00,
2013-05-13 04:31:00,45.0,32.0,29.85,West,263,3.0,7.0,59,-99.99,,,-99.99,,2013-05-13 08:31:00,
2013-05-13 04:42:00,45.0,32.0,29.85,West,263,3.0,7.0,59,-99.99,,,-99.99,,2013-05-13 08:42:00,
2013-05-13 04:52:00,45.0,32.0,29.85,WNW,282,1.0,4.0,60,-99.99,,,-99.99,,2013-05-13 08:52:00,
2013-05-13 05:01:00,45.0,33.0,29.85,West,281,2.0,6.0,62,-99.99,,,-99.99,,2013-05-13 09:01:00,
2013-05-13 05:11:00,44.0,32.0,29.86,West,271,0.0,6.0,63,-99.99,,,-99.99,,2013-05-13 09:11:00,
2013-05-13 05:21:00,44.0,32.0,29.86,West,271,0.0,6.0,63,-99.99,,,-99.99,,2013-05-13 09:21:00,
2013-05-13 05:33:00,44.0,32.0,29.87,West,280,1.0,6.0,63,-99.99,,,-99.99,,2013-05-13 09:33:00,
2013-05-13 05:42:00,44.0,32.0,29.87,West,280,1.0,6.0,63,-99.99,,,-99.99,,2013-05-13 09:42:00,
2013-05-13 05:52:00,44.0,32.0,29.87,West,281,1.0,4.0,63,-99.99,,,-99.99,,2013-05-13 09:52:00,
2013-05-13 06:03:00,44.0,33.0,29.88,West,272,1.0,4.0,64,-99.99,,,-99.99,,2013-05-13 10:03:00,
2013-05-13 06:12:00,44.0,33.0,29.88,West,272,1.0,4.0,64,-99.99,,,-99.99,,2013-05-13 10:12:00,
2013-05-13 06:22:00,44.0,33.0,29.88,West,262,3.0,6.0,64,-99.99,,,-99.99,,2013-05-13 10:22:00,
2013-05-13 06:32:00,44.0,33.0,29.89,West,272,3.0,5.0,64,-99.99,,,-99.99,,2013-05-13 10:32:00,
2013-05-13 06:42:00,44.0,33.0,29.89,West,272,3.0,5.0,64,-99.99,,,-99.99,,2013-05-13 10:42:00,
2013-05-13 06:52:00,44.0,32.0,29.89,WNW,284,3.0,5.0,63,-99.99,,,-99.99,,2013-05-13 10:52:00,
2013-05-13 07:02:00,44.0,32.0,29.90,South,169,2.0,7.0,63,-99.99,,,-99.99,,2013-05-13 11:02:00,
2013-05-13 07:12:00,45.0,33.0,29.90,SW,234,3.0,7.0,62,-99.99,,,-99.99,,2013-05-13 11:12:00,
2013-05-13 07:21:00,45.0,33.0,29.90,SW,234,3.0,7.0,62,-99.99,,,-99.99,,2013-05-13 11:21:00,
2013-05-13 07:32:00,46.0,34.0,29.91,SW,215,1.0,7.0,62,-99.99,,,-99.99,,2013-05-13 11:32:00,
2013-05-13 07:42:00,46.0,34.0,29.91,SW,215,1.0,7.0,62,-99.99,,,-99.99,,2013-05-13 11:42:00,
2013-05-13 07:52:00,47.0,34.0,29.92,West,275,4.0,11.0,60,-99.99,,,-99.99,,2013-05-13 11:52:00,
2013-05-13 08:01:00,47.0,34.0,29.92,West,268,3.0,9.0,60,-99.99,,,-99.99,,2013-05-13 12:01:00,
2013-05-13 08:11:00,47.0,34.0,29.92,West,268,3.0,9.0,60,-99.99,,,-99.99,,2013-05-13 12:11:00,
2013-05-13 08:21:00,48.0,33.0,29.92,South,190,7.0,16.0,56,-99.99,,,-99.99,,2013-05-13 12:21:00,
2013-05-13 08:32:00,48.0,34.0,29.93,SSE,150,4.0,11.0,58,-99.99,,,-99.99,,2013-05-13 12:32:00,
2013-05-13 08:42:00,48.0,34.0,29.93,SSE,150,4.0,11.0,58,-99.99,,,-99.99,,2013-05-13 12:42:00,
2013-05-13 08:52:00,48.0,32.0,29.93,WNW,296,8.0,18.0,54,-99.99,,,-99.99,,2013-05-13 12:52:00,
2013-05-13 09:01:00,49.0,33.0,29.92,NW,304,7.0,14.0,54,-99.99,,,-99.99,,2013-05-13 13:01:00,
2013-05-13 09:11:00,49.0,33.0,29.92,NW,304,7.0,14.0,54,-99.99,,,-99.99,,2013-05-13 13:11:00,
2013-05-13 09:21:00,49.0,33.0,29.93,WNW,296,2.0,14.0,54,-99.99,,,-99.99,,2013-05-13 13:21:00,
2013-05-13 09:31:00,49.0,33.0,29.93,WSW,240,7.0,13.0,54,-99.99,,,-99.99,,2013-05-13 13:31:00,
2013-05-13 09:42:00,50.0,32.0,29.93,South,191,7.0,15.0,50,-99.99,,,-99.99,,2013-05-13 13:42:00,
2013-05-13 09:52:00,50.0,32.0,29.93,South,191,7.0,15.0,50,-99.99,,,-99.99,,2013-05-13 13:52:00,
2013-05-13 10:02:00,50.0,32.0,29.93,WSW,253,5.0,14.0,49,-99.99,,,-99.99,,2013-05-13 14:02:00,
2013-05-13 10:11:00,50.0,32.0,29.93,WSW,253,5.0,14.0,49,-99.99,,,-99.99,,2013-05-13 14:11:00,
2013-05-13 10:22:00,51.0,34.0,29.94,WNW,300,4.0,11.0,51,-99.99,,,-99.99,,2013-05-13 14:22:00,
2013-05-13 10:32:00,51.0,33.0,29.94,WNW,292,5.0,12.0,50,-99.99,,,-99.99,,2013-05-13 14:32:00,
2013-05-13 10:41:00,51.0,33.0,29.94,WNW,298,6.0,14.0,49,-99.99,,,-99.99,,2013-05-13 14:41:00,
2013-05-13 10:52:00,51.0,33.0,29.94,WNW,298,6.0,14.0,49,-99.99,,,-99.99,,2013-05-13 14:52:00,
2013-05-13 11:01:00,51.0,33.0,29.94,WNW,284,4.0,16.0,49,-99.99,,,-99.99,,2013-05-13 15:01:00,
2013-05-13 11:11:00,53.0,34.0,29.95,West,278,10.0,12.0,48,-99.99,,,-99.99,,2013-05-13 15:11:00,
2013-05-13 11:21:00,53.0,34.0,29.95,West,278,10.0,12.0,48,-99.99,,,-99.99,,2013-05-13 15:21:00,
2013-05-13 11:32:00,52.0,33.0,29.95,WNW,283,7.0,17.0,48,-99.99,,,-99.99,,2013-05-13 15:32:00,
2013-05-13 11:42:00,54.0,35.0,29.95,WNW,298,5.0,16.0,48,-99.99,,,-99.99,,2013-05-13 15:42:00,
2013-05-13 11:53:00,54.0,35.0,29.95,WNW,298,5.0,16.0,48,-99.99,,,-99.99,,2013-05-13 15:53:00,
2013-05-13 12:03:00,54.0,34.0,29.94,WNW,292,10.0,13.0,46,-99.99,,,-99.99,,2013-05-13 16:03:00,
2013-05-13 12:12:00,54.0,34.0,29.94,WNW,292,10.0,13.0,46,-99.99,,,-99.99,,2013-05-13 16:12:00,
2013-05-13 12:21:00,54.0,33.0,29.94,West,261,8.0,14.0,44,-99.99,,,-99.99,,2013-05-13 16:21:00,
2013-05-13 12:33:00,54.0,33.0,29.95,West,280,7.0,13.0,44,-99.99,,,-99.99,,2013-05-13 16:33:00,
2013-05-13 12:42:00,54.0,33.0,29.94,WNW,300,5.0,17.0,44,-99.99,,,-99.99,,2013-05-13 16:42:00,
2013-05-13 12:53:00,54.0,33.0,29.94,WNW,300,5.0,17.0,44,-99.99,,,-99.99,,2013-05-13 16:53:00,
2013-05-13 13:02:00,54.0,32.0,29.94,West,271,3.0,16.0,43,-99.99,,,-99.99,,2013-05-13 17:02:00,
2013-05-13 13:12:00,54.0,32.0,29.94,West,271,3.0,16.0,43,-99.99,,,-99.99,,2013-05-13 17:12:00,
2013-05-13 13:21:00,55.0,34.0,29.95,West,268,6.0,13.0,45,-99.99,,,-99.99,,2013-05-13 17:21:00,
2013-05-13 13:32:00,55.0,33.0,29.95,West,269,6.0,14.0,43,-99.99,,,-99.99,,2013-05-13 17:32:00,
2013-05-13 13:42:00,56.0,34.0,29.95,WNW,288,3.0,14.0,44,-99.99,,,-99.99,,2013-05-13 17:42:00,
2013-05-13 13:54:00,56.0,34.0,29.95,WNW,288,3.0,14.0,44,-99.99,,,-99.99,,2013-05-13 17:54:00,
2013-05-13 14:03:00,56.0,32.0,29.95,WNW,292,7.0,13.0,40,-99.99,,,-99.99,,2013-05-13 18:03:00,
2013-05-13 14:13:00,56.0,32.0,29.95,WNW,292,7.0,13.0,40,-99.99,,,-99.99,,2013-05-13 18:13:00,
2013-05-13 14:23:00,56.0,32.0,29.95,WNW,286,4.0,12.0,40,-99.99,,,-99.99,,2013-05-13 18:23:00,
2013-05-13 14:32:00,56.0,32.0,29.95,WNW,289,6.0,12.0,40,-99.99,,,-99.99,,2013-05-13 18:32:00,
2013-05-13 14:42:00,56.0,33.0,29.95,WNW,295,3.0,11.0,42,-99.99,,,-99.99,,2013-05-13 18:42:00,
2013-05-13 14:52:00,56.0,33.0,29.95,WNW,295,3.0,11.0,42,-99.99,,,-99.99,,2013-05-13 18:52:00,
2013-05-13 15:01:00,57.0,32.0,29.95,West,268,8.0,13.0,38,-99.99,,,-99.99,,2013-05-13 19:01:00,
2013-05-13 15:11:00,57.0,32.0,29.95,West,268,8.0,13.0,38,-99.99,,,-99.99,,2013-05-13 19:11:00,
2013-05-13 15:21:00,57.0,35.0,29.94,NW,304,4.0,17.0,44,-99.99,,,-99.99,,2013-05-13 19:21:00,
2013-05-13 15:32:00,57.0,34.0,29.94,West,265,3.0,13.0,41,-99.99,,,-99.99,,2013-05-13 19:32:00,
2013-05-13 15:44:00,57.0,34.0,29.93,NW,313,2.0,15.0,42,-99.99,,,-99.99,,2013-05-13 19:44:00,
2013-05-13 15:53:00,57.0,34.0,29.93,NW,313,2.0,15.0,42,-99.99,,,-99.99,,2013-05-13 19:53:00,
2013-05-13 16:02:00,57.0,34.0,29.93,WNW,284,6.0,19.0,41,-99.99,,,-99.99,,2013-05-13 20:02:00,
2013-05-13 16:11:00,57.0,33.0,29.93,WNW,296,4.0,13.0,40,-99.99,,,-99.99,,2013-05-13 20:11:00,
2013-05-13 16:23:00,57.0,33.0,29.93,WNW,296,4.0,13.0,40,-99.99,,,-99.99,,2013-05-13 20:23:00,
2013-05-13 16:33:00,58.0,33.0,29.93,WNW,290,7.0,12.0,39,-99.99,,,-99.99,,2013-05-13 20:33:00,
2013-05-13 16:44:00,57.0,33.0,29.93,West,268,4.0,11.0,40,-99.99,,,-99.99,,2013-05-13 20:44:00,
2013-05-13 16:53:00,57.0,33.0,29.93,West,268,4.0,11.0,40,-99.99,,,-99.99,,2013-05-13 20:53:00,
2013-05-13 17:03:00,56.0,31.0,29.93,NW,321,5.0,12.0,38,-99.99,,,-99.99,,2013-05-13 21:03:00,
2013-05-13 17:14:00,56.0,31.0,29.93,NW,321,5.0,12.0,38,-99.99,,,-99.99,,2013-05-13 21:14:00,
2013-05-13 17:23:00,57.0,32.0,29.93,WNW,292,3.0,15.0,39,-99.99,,,-99.99,,2013-05-13 21:23:00,
2013-05-13 17:33:00,56.0,33.0,29.94,West,279,7.0,13.0,42,-99.99,,,-99.99,,2013-05-13 21:33:00,
2013-05-13 17:43:00,56.0,33.0,29.94,West,279,7.0,13.0,42,-99.99,,,-99.99,,2013-05-13 21:43:00,
2013-05-13 17:53:00,56.0,32.0,29.94,NW,311,2.0,14.0,40,-99.99,,,-99.99,,2013-05-13 21:53:00,
2013-05-13 18:02:00,56.0,31.0,29.94,WNW,286,6.0,14.0,39,-99.99,,,-99.99,,2013-05-13 22:02:00,
2013-05-13 18:12:00,56.0,31.0,29.94,WNW,286,6.0,14.0,39,-99.99,,,-99.99,,2013-05-13 22:12:00,
2013-05-13 18:23:00,55.0,32.0,29.94,NW,307,6.0,11.0,42,-99.99,,,-99.99,,2013-05-13 22:23:00,
2013-05-13 18:32:00,55.0,33.0,29.94,WNW,296,3.0,19.0,43,-99.99,,,-99.99,,2013-05-13 22:32:00,
2013-05-13 18:43:00,54.0,32.0,29.95,WNW,289,6.0,10.0,43,-99.99,,,-99.99,,2013-05-13 22:43:00,
2013-05-13 18:52:00,54.0,32.0,29.95,WNW,289,6.0,10.0,43,-99.99,,,-99.99,,2013-05-13 22:52:00,
2013-05-13 19:02:00,54.0,31.0,29.96,North,355,9.0,15.0,41,-99.99,,,-99.99,,2013-05-13 23:02:00,
2013-05-13 19:12:00,54.0,31.0,29.96,North,355,9.0,15.0,41,-99.99,,,-99.99,,2013-05-13 23:12:00,
2013-05-13 19:23:00,53.0,32.0,29.96,WNW,292,1.0,10.0,44,-99.99,,,-99.99,,2013-05-13 23:23:00,
2013-05-13 19:33:00,53.0,32.0,29.96,NW,305,2.0,9.0,44,-99.99,,,-99.99,,2013-05-13 23:33:00,
2013-05-13 19:42:00,53.0,32.0,29.96,NW,305,2.0,9.0,44,-99.99,,,-99.99,,2013-05-13 23:42:00,
2013-05-13 19:54:00,52.0,32.0,29.97,WNW,283,0.0,4.0,46,-99.99,,,-99.99,,2013-05-13 23:54:00,
2013-05-13 20:02:00,51.0,31.0,29.98,WNW,283,0.0,3.0,47,-99.99,,,-99.99,,2013-05-14 00:02:00,
2013-05-13 20:12:00,51.0,33.0,29.98,WNW,283,0.0,1.0,50,-99.99,,,-99.99,,2013-05-14 00:12:00,
2013-05-13 20:22:00,51.0,33.0,29.98,WNW,283,0.0,1.0,50,-99.99,,,-99.99,,2013-05-14 00:22:00,
2013-05-13 20:31:00,50.0,33.0,29.99,WNW,283,0.0,2.0,51,-99.99,,,-99.99,,2013-05-14 00:31:00,
2013-05-13 20:41:00,50.0,33.0,29.99,WNW,283,0.0,2.0,51,-99.99,,,-99.99,,2013-05-14 00:41:00,
2013-05-13 20:52:00,49.0,33.0,30.00,WNW,283,0.0,0.0,54,-99.99,,,-99.99,,2013-05-14 00:52:00,
2013-05-13 21:02:00,49.0,34.0,30.00,WNW,283,0.0,1.0,56,-99.99,,,-99.99,,2013-05-14 01:02:00,
2013-05-13 21:11:00,49.0,34.0,30.00,WNW,283,0.0,1.0,56,-99.99,,,-99.99,,2013-05-14 01:11:00,
2013-05-13 21:21:00,48.0,34.0,30.01,WNW,294,2.0,5.0,57,-99.99,,,-99.99,,2013-05-14 01:21:00,
2013-05-13 21:32:00,48.0,35.0,30.00,WNW,302,2.0,5.0,60,-99.99,,,-99.99,,2013-05-14 01:32:00,
2013-05-13 21:43:00,48.0,35.0,30.00,WNW,302,2.0,5.0,60,-99.99,,,-99.99,,2013-05-14 01:43:00,
2013-05-13 21:53:00,48.0,34.0,30.01,NW,307,1.0,3.0,59,-99.99,,,-99.99,,2013-05-14 01:53:00,
2013-05-13 22:02:00,48.0,34.0,30.02,West,280,2.0,6.0,58,-99.99,,,-99.99,,2013-05-14 02:02:00,
2013-05-13 22:12:00,48.0,34.0,30.02,NW,307,1.0,4.0,57,-99.99,,,-99.99,,2013-05-14 02:12:00,
2013-05-13 22:22:00,48.0,34.0,30.02,NW,307,1.0,4.0,57,-99.99,,,-99.99,,2013-05-14 02:22:00,
2013-05-13 22:32:00,48.0,34.0,30.02,NW,307,0.0,3.0,58,-99.99,,,-99.99,,2013-05-14 02:32:00,
2013-05-13 22:42:00,48.0,34.0,30.02,NW,307,0.0,3.0,58,-99.99,,,-99.99,,2013-05-14 02:42:00,
2013-05-13 22:52:00,47.0,33.0,30.01,NW,307,0.0,3.0,58,-99.99,,,-99.99,,2013-05-14 02:52:00,
2013-05-13 23:01:00,47.0,34.0,30.01,NW,307,0.0,3.0,60,-99.99,,,-99.99,,2013-05-14 03:01:00,
2013-05-13 23:11:00,46.0,33.0,30.01,NW,309,0.0,2.0,61,-99.99,,,-99.99,,2013-05-14 03:11:00,
2013-05-13 23:21:00,46.0,33.0,30.01,NW,309,0.0,2.0,61,-99.99,,,-99.99,,2013-05-14 03:21:00,
2013-05-13 23:33:00,46.0,33.0,30.01,NW,309,0.0,0.0,61,-99.99,,,-99.99,,2013-05-14 03:33:00,
2013-05-13 23:42:00,46.0,33.0,30.01,NW,309,0.0,0.0,61,-99.99,,,-99.99,,2013-05-14 03:42:00,
2013-05-13 23:53:00,45.0,34.0,30.01,NW,309,0.0,0.0,65,-99.99,,,-99.99,,2013-05-14 03:53:00,